Alicante, Spain

10:15 AM CEST on July 21, 2017 (GMT +0200)
Alicante

Weather History for LEAL - February, 2013

Change the Weather History Date:

Saturday, February 23, 2013

  Actual Average Record
Temperature  
Mean Temperature 52 °F -  
Max Temperature 60 °F 63 °F 75 °F (2001)
Min Temperature 44 °F 45 °F 37 °F (2012)
Degree Days  
Heating Degree Days 13    
Growing Degree Days 2 (Base 50)    
Moisture  
Dew Point 35 °F    
Average Humidity 52    
Maximum Humidity 87    
Minimum Humidity 26    
Precipitation  
Precipitation 0.00 in - - ()
Sea Level Pressure  
Sea Level Pressure 29.68 in    
Wind  
Wind Speed 10 mph ()    
Max Wind Speed 20 mph    
Max Gust Speed 30 mph    
Visibility 6.9 miles    
Events Rain    
Averages and records for this station are not official NWS values.
T = Trace of Precipitation, MM = Missing Value Source: Averaged Metar Reports

Daily Weather History Graph

Daily Weather History Graph

Search for Another Location

Airport or City:

Trip Planner

Search our weather history database for the weather conditions in past years. The results will help you decide how hot, cold, wet, or windy it might be!

Date:

Astronomy

Feb. 23, 2013 Rise Set
Actual Time 7:42 AM CET 6:49 PM CET
Civil Twilight 7:15 AM CET 7:15 PM CET
Nautical Twilight 6:44 AM CET 7:46 PM CET
Astronomical Twilight 6:14 AM CET 8:17 PM CET
Moon 4:45 PM CET (2/23) 5:54 AM CET (2/23)
Length of Visible Light 12h 00m
Length of Day
11h 06m
Waxing Gibbous, 94% of the Moon is Illuminated
Feb 23
Waxing Gibbous
Feb 25
Full
Mar 4
Last Quarter
Mar 11
New
Mar 19
First Quarter

Hourly Weather History & Observations

Time (CET) Temp. Windchill Dew Point Humidity Pressure Visibility Wind Dir Wind Speed Gust Speed Precip Events Conditions
12:00 AM 60.8 °F - 37.4 °F 42% 29.56 in 6.2 mi West 15.0 mph - N/A   Scattered Clouds
12:30 AM 59.0 °F - 37.4 °F 45% 29.53 in 6.2 mi West 12.7 mph - N/A   Scattered Clouds
1:00 AM 57 °F - 35 °F 31% 29.56 in 12 mi West 12.7 mph - -   Partly Cloudy
1:00 AM 57.2 °F - 37.4 °F 48% 29.53 in 6.2 mi West 11.5 mph - N/A   Scattered Clouds
1:30 AM 57.2 °F - 37.4 °F 48% 29.53 in 6.2 mi WSW 11.5 mph - N/A   Scattered Clouds
2:00 AM 55.4 °F - 37.4 °F 51% 29.53 in 6.2 mi WSW 6.9 mph - N/A   Scattered Clouds
2:30 AM 53.6 °F - 37.4 °F 54% 29.53 in 6.2 mi WSW 8.1 mph - N/A   Scattered Clouds
3:00 AM 53.6 °F - 37.4 °F 54% 29.53 in 6.2 mi SW 8.1 mph - N/A   Scattered Clouds
3:30 AM 55.4 °F - 35.6 °F 47% 29.53 in 6.2 mi West 9.2 mph - N/A   Scattered Clouds
4:00 AM 53.6 °F - 37.4 °F 54% 29.53 in 6.2 mi WSW 11.5 mph - N/A   Partly Cloudy
4:30 AM 53.6 °F - 37.4 °F 54% 29.53 in 6.2 mi West 15.0 mph - N/A   Partly Cloudy
5:00 AM 53.6 °F - 37.4 °F 54% 29.50 in 6.2 mi WSW 18.4 mph - N/A   Partly Cloudy
5:30 AM 51.8 °F - 37.4 °F 58% 29.50 in 6.2 mi West 6.9 mph - N/A   Partly Cloudy
6:00 AM 50.0 °F - 37.4 °F 62% 29.53 in 6.2 mi Variable 2.3 mph - N/A   Partly Cloudy
6:30 AM 51.8 °F - 35.6 °F 54% 29.53 in 6.2 mi WSW 6.9 mph - N/A   Partly Cloudy
7:00 AM 50 °F - 33 °F 41% 29.57 in 19 mi WSW 9.2 mph - -   Scattered Clouds
7:00 AM 51.8 °F - 35.6 °F 54% 29.56 in 6.2 mi WSW 8.1 mph - N/A   Partly Cloudy
7:30 AM 53.6 °F - 35.6 °F 51% 29.56 in 6.2 mi WSW 9.2 mph - N/A   Partly Cloudy
8:00 AM 50.0 °F - 37.4 °F 62% 29.56 in 6.2 mi Variable 2.3 mph - N/A   Partly Cloudy
8:30 AM 51.8 °F - 37.4 °F 58% 29.59 in 6.2 mi SSE 4.6 mph - N/A   Partly Cloudy
9:00 AM 55.4 °F - 37.4 °F 51% 29.62 in 6.2 mi South 3.5 mph - N/A   Scattered Clouds
9:30 AM 55.4 °F - 37.4 °F 51% 29.62 in 6.2 mi SSW 3.5 mph - N/A   Scattered Clouds
10:00 AM 57.2 °F - 37.4 °F 48% 29.62 in 6.2 mi SW 8.1 mph - N/A   Mostly Cloudy
10:30 AM 55.4 °F - 37.4 °F 51% 29.62 in 6.2 mi SW 4.6 mph - N/A   Mostly Cloudy
11:00 AM 57.2 °F - 37.4 °F 48% 29.62 in 6.2 mi SW 3.5 mph - N/A   Mostly Cloudy
11:30 AM 57.2 °F - 37.4 °F 48% 29.65 in 6.2 mi WSW 6.9 mph - N/A   Mostly Cloudy
12:00 PM 59.0 °F - 35.6 °F 42% 29.65 in 6.2 mi WNW 13.8 mph - N/A   Mostly Cloudy
12:30 PM 57.2 °F - 44.6 °F 63% 29.68 in 6.2 mi NW 18.4 mph 29.9 mph N/A Rain Light Rain
1:00 PM 50 °F - 43 °F 70% 29.69 in 12 mi ENE 17.3 mph - - Rain Light Rain
1:00 PM 50.0 °F - 46.4 °F 87% 29.68 in 6.2 mi ENE 16.1 mph - N/A Rain Light Rain
1:30 PM 53.6 °F - 46.4 °F 77% 29.68 in 6.2 mi East 11.5 mph - N/A   Scattered Clouds
2:00 PM 51.8 °F - 44.6 °F 76% 29.68 in 6.2 mi ENE 16.1 mph - N/A   Scattered Clouds
2:30 PM 51.8 °F - 44.6 °F 76% 29.68 in 6.2 mi ENE 13.8 mph - N/A   Scattered Clouds
3:00 PM 51.8 °F - 42.8 °F 71% 29.68 in 6.2 mi ENE 11.5 mph - N/A   Scattered Clouds
3:30 PM 53.6 °F - 42.8 °F 67% 29.68 in 6.2 mi East 8.1 mph - N/A   Partly Cloudy
4:00 PM 53.6 °F - 41.0 °F 62% 29.71 in 6.2 mi East 11.5 mph - N/A   Partly Cloudy
4:30 PM 53.6 °F - 42.8 °F 67% 29.71 in 6.2 mi East 11.5 mph - N/A   Partly Cloudy
5:00 PM 53.6 °F - 41.0 °F 62% 29.74 in 6.2 mi East 10.4 mph - N/A   Partly Cloudy
5:30 PM 51.8 °F - 39.2 °F 62% 29.77 in 6.2 mi ESE 9.2 mph - N/A   Partly Cloudy
6:00 PM 53.6 °F - 39.2 °F 58% 29.80 in 6.2 mi SE 6.9 mph - N/A   Partly Cloudy
6:30 PM 53.6 °F - 39.2 °F 58% 29.80 in 6.2 mi SE 3.5 mph - N/A   Partly Cloudy
7:00 PM 51 °F - 35 °F 43% 29.85 in 16 mi SW 3.5 mph - -   Scattered Clouds
7:00 PM 51.8 °F - 37.4 °F 58% 29.83 in 6.2 mi SW 3.5 mph - N/A   Partly Cloudy
7:30 PM 51.8 °F - 28.4 °F 41% 29.86 in 6.2 mi WSW 10.4 mph - N/A   Partly Cloudy
8:00 PM 51.8 °F - 17.6 °F 26% 29.89 in 6.2 mi WNW 15.0 mph - N/A   Partly Cloudy
8:30 PM 50.0 °F - 17.6 °F 28% 29.92 in 6.2 mi WNW 18.4 mph - N/A   Partly Cloudy
9:00 PM 48.2 °F - 17.6 °F 30% 29.92 in 6.2 mi WNW 19.6 mph - N/A   Partly Cloudy
9:30 PM 48.2 °F - 17.6 °F 30% 29.95 in 6.2 mi NW 16.1 mph - N/A   Partly Cloudy
10:00 PM 46.4 °F 41.1 °F 17.6 °F 32% 29.95 in 6.2 mi WNW 11.5 mph - N/A   Partly Cloudy
10:30 PM 46.4 °F 43.5 °F 15.8 °F 29% 29.98 in 6.2 mi West 5.8 mph - N/A   Partly Cloudy
11:00 PM 44.6 °F 41.4 °F 15.8 °F 31% 29.98 in 6.2 mi WNW 5.8 mph - N/A   Partly Cloudy
11:30 PM 44.6 °F 40.2 °F 14.0 °F 29% 30.01 in - WNW 8.1 mph - N/A   Clear